Time,TemperatureF,DewpointF,PressureIn,WindDirection,WindDirectionDegrees,WindSpeedMPH,WindSpeedGustMPH,Humidity,HourlyPrecipIn,Conditions,Clouds,dailyrainin,SoftwareType,DateUTC
2013-05-02 00:01:00,59.8,55.9,30.17,North,359,0.0,5.0,87,0.00,,SKC,0.00,VWS V14.01,2013-05-02 04:01:00,
2013-05-02 00:06:00,59.8,56.2,30.17,NW,304,2.0,3.0,88,0.00,,SKC,0.00,VWS V14.01,2013-05-02 04:06:00,
2013-05-02 00:11:00,59.8,56.2,30.17,North,0,2.0,3.0,88,0.00,,SKC,0.00,VWS V14.01,2013-05-02 04:11:00,
2013-05-02 00:16:00,59.8,56.2,30.17,NNE,21,2.0,5.0,88,0.00,,SKC,0.00,VWS V14.01,2013-05-02 04:16:00,
2013-05-02 00:21:00,59.6,56.0,30.17,North,353,0.0,5.0,88,0.00,,SKC,0.00,VWS V14.01,2013-05-02 04:21:00,
2013-05-02 00:26:00,59.6,56.0,30.17,North,0,0.0,5.0,88,0.00,,SKC,0.00,VWS V14.01,2013-05-02 04:26:00,
2013-05-02 00:31:00,59.5,56.3,30.17,North,359,1.0,5.0,89,0.00,,SKC,0.00,VWS V14.01,2013-05-02 04:31:00,
2013-05-02 00:36:00,59.5,56.3,30.17,North,4,0.0,1.0,89,0.00,,SKC,0.00,VWS V14.01,2013-05-02 04:36:00,
2013-05-02 00:41:00,59.5,56.3,30.17,North,6,0.0,1.0,89,0.00,,SKC,0.00,VWS V14.01,2013-05-02 04:41:00,
2013-05-02 00:46:00,59.5,56.3,30.17,NNE,27,1.0,2.0,89,0.00,,SKC,0.00,VWS V14.01,2013-05-02 04:46:00,
2013-05-02 00:51:00,59.5,56.0,30.17,North,356,0.0,3.0,88,0.00,,SKC,0.00,VWS V14.01,2013-05-02 04:51:00,
2013-05-02 00:56:00,59.5,56.0,30.17,NNE,16,2.0,5.0,88,0.00,,SKC,0.00,VWS V14.01,2013-05-02 04:56:00,
2013-05-02 01:01:00,59.5,56.3,30.17,North,4,0.0,5.0,89,0.00,,SKC,0.00,VWS V14.01,2013-05-02 05:01:00,
2013-05-02 01:06:00,59.5,56.3,30.17,North,0,0.0,2.0,89,0.00,,SKC,0.00,VWS V14.01,2013-05-02 05:06:00,
2013-05-02 01:11:00,59.5,56.3,30.17,North,0,0.0,2.0,89,0.00,,SKC,0.00,VWS V14.01,2013-05-02 05:11:00,
2013-05-02 01:16:00,59.5,56.0,30.17,North,0,0.0,3.0,88,0.00,,SKC,0.00,VWS V14.01,2013-05-02 05:16:00,
2013-05-02 01:21:00,59.5,56.3,30.17,North,0,0.0,3.0,89,0.00,,SKC,0.00,VWS V14.01,2013-05-02 05:21:00,
2013-05-02 01:26:00,59.5,56.3,30.17,North,354,0.0,3.0,89,0.00,,SKC,0.00,VWS V14.01,2013-05-02 05:26:00,
2013-05-02 01:31:00,59.5,56.3,30.17,NNW,347,0.0,3.0,89,0.00,,SKC,0.00,VWS V14.01,2013-05-02 05:31:00,
2013-05-02 01:36:00,59.5,56.3,30.17,NNE,14,1.0,1.0,89,0.00,,SKC,0.00,VWS V14.01,2013-05-02 05:36:00,
2013-05-02 01:41:00,59.5,56.0,30.17,North,0,0.0,2.0,88,0.00,,SKC,0.00,VWS V14.01,2013-05-02 05:41:00,
2013-05-02 01:46:00,59.5,56.0,30.17,NNE,25,0.0,3.0,88,0.00,,SKC,0.00,VWS V14.01,2013-05-02 05:46:00,
2013-05-02 01:51:00,59.3,55.8,30.17,NW,320,0.0,3.0,88,0.00,,SKC,0.00,VWS V14.01,2013-05-02 05:51:00,
2013-05-02 01:56:00,59.3,55.4,30.17,NNE,27,0.0,6.0,87,0.00,,SKC,0.00,VWS V14.01,2013-05-02 05:56:00,
2013-05-02 02:01:00,59.3,55.4,30.17,NNE,27,3.0,6.0,87,0.00,,SKC,0.00,VWS V14.01,2013-05-02 06:01:00,
2013-05-02 02:06:00,59.3,55.4,30.17,North,11,0.0,3.0,87,0.00,,SKC,0.00,VWS V14.01,2013-05-02 06:06:00,
2013-05-02 02:11:00,59.2,55.3,30.17,SE,145,1.0,3.0,87,0.00,,SKC,0.00,VWS V14.01,2013-05-02 06:11:00,
2013-05-02 02:16:00,59.2,55.0,30.17,North,356,3.0,5.0,86,0.00,,SKC,0.00,VWS V14.01,2013-05-02 06:16:00,
2013-05-02 02:21:00,59.2,55.0,30.16,NW,313,0.0,5.0,86,0.00,,SKC,0.00,VWS V14.01,2013-05-02 06:21:00,
2013-05-02 02:26:00,59.0,55.1,30.16,North,0,2.0,5.0,87,0.00,,SKC,0.00,VWS V14.01,2013-05-02 06:26:00,
2013-05-02 02:31:00,59.0,55.1,30.16,East,97,2.0,5.0,87,0.00,,SKC,0.00,VWS V14.01,2013-05-02 06:31:00,
2013-05-02 02:36:00,59.0,55.1,30.16,NNE,14,0.0,3.0,87,0.00,,SKC,0.00,VWS V14.01,2013-05-02 06:36:00,
2013-05-02 02:41:00,58.9,55.4,30.16,NNW,336,0.0,3.0,88,0.00,,SKC,0.00,VWS V14.01,2013-05-02 06:41:00,
2013-05-02 02:46:00,58.9,55.4,30.16,NNW,344,0.0,3.0,88,0.00,,SKC,0.00,VWS V14.01,2013-05-02 06:46:00,
2013-05-02 02:51:00,58.9,55.7,30.15,North,354,0.0,3.0,89,0.00,,SKC,0.00,VWS V14.01,2013-05-02 06:51:00,
2013-05-02 02:56:00,58.7,55.8,30.15,NNE,14,0.0,4.0,90,0.00,,SKC,0.00,VWS V14.01,2013-05-02 06:56:00,
2013-05-02 03:01:00,58.6,56.0,30.15,East,89,0.0,6.0,91,0.00,,SKC,0.00,VWS V14.01,2013-05-02 07:01:00,
2013-05-02 03:06:00,58.4,55.8,30.15,North,11,0.0,2.0,91,0.00,,SKC,0.00,VWS V14.01,2013-05-02 07:06:00,
2013-05-02 03:11:00,58.3,56.0,30.15,North,11,0.0,2.0,92,0.00,,SKC,0.00,VWS V14.01,2013-05-02 07:11:00,
2013-05-02 03:16:00,58.3,56.3,30.15,North,11,0.0,2.0,93,0.00,,SKC,0.00,VWS V14.01,2013-05-02 07:16:00,
2013-05-02 03:21:00,58.1,56.4,30.15,North,8,0.0,3.0,94,0.00,,SKC,0.00,VWS V14.01,2013-05-02 07:21:00,
2013-05-02 03:26:00,58.0,56.3,30.15,ESE,112,0.0,3.0,94,0.01,,SKC,0.01,VWS V14.01,2013-05-02 07:26:00,
2013-05-02 03:31:00,57.8,56.4,30.15,East,86,0.0,3.0,95,0.01,,SKC,0.01,VWS V14.01,2013-05-02 07:31:00,
2013-05-02 03:36:00,57.6,56.5,30.15,NE,37,0.0,2.0,96,0.01,,SKC,0.01,VWS V14.01,2013-05-02 07:36:00,
2013-05-02 03:41:00,57.5,56.4,30.15,NNE,25,0.0,2.0,96,0.01,,SKC,0.01,VWS V14.01,2013-05-02 07:41:00,
2013-05-02 03:46:00,57.5,56.7,30.15,ESE,102,0.0,4.0,97,0.01,,SKC,0.01,VWS V14.01,2013-05-02 07:46:00,
2013-05-02 03:51:00,57.3,56.5,30.15,East,97,0.0,4.0,97,0.01,,SKC,0.01,VWS V14.01,2013-05-02 07:51:00,
2013-05-02 03:56:00,57.3,56.5,30.15,ESE,121,0.0,4.0,97,0.01,,SKC,0.01,VWS V14.01,2013-05-02 07:56:00,
2013-05-02 04:01:00,57.2,56.4,30.15,ENE,59,0.0,4.0,97,0.01,,SKC,0.01,VWS V14.01,2013-05-02 08:01:00,
2013-05-02 04:06:00,57.2,56.4,30.16,West,261,0.0,1.0,97,0.01,,SKC,0.01,VWS V14.01,2013-05-02 08:06:00,
2013-05-02 04:11:00,57.0,56.4,30.16,NNW,344,0.0,3.0,98,0.01,,SKC,0.01,VWS V14.01,2013-05-02 08:11:00,
2013-05-02 04:16:00,57.0,56.4,30.16,NNE,21,1.0,3.0,98,0.01,,SKC,0.01,VWS V14.01,2013-05-02 08:16:00,
2013-05-02 04:21:00,56.9,56.6,30.15,East,89,2.0,3.0,99,0.01,,SKC,0.01,VWS V14.01,2013-05-02 08:21:00,
2013-05-02 04:26:00,56.9,56.9,30.15,North,0,0.0,4.0,100,0.01,,SKC,0.01,VWS V14.01,2013-05-02 08:26:00,
2013-05-02 04:31:00,56.9,56.9,30.15,North,0,0.0,4.0,100,0.01,,SKC,0.01,VWS V14.01,2013-05-02 08:31:00,
2013-05-02 04:36:00,56.7,56.7,30.14,North,359,0.0,1.0,100,0.00,,SKC,0.01,VWS V14.01,2013-05-02 08:36:00,
2013-05-02 04:41:00,56.7,56.7,30.14,North,0,0.0,2.0,100,0.00,,SKC,0.01,VWS V14.01,2013-05-02 08:41:00,
2013-05-02 04:46:00,56.7,56.7,30.14,North,353,0.0,3.0,100,0.00,,SKC,0.01,VWS V14.01,2013-05-02 08:46:00,
2013-05-02 04:51:00,56.6,56.6,30.14,ENE,68,0.0,3.0,100,0.00,,SKC,0.01,VWS V14.01,2013-05-02 08:51:00,
2013-05-02 04:56:00,56.6,56.6,30.14,NNW,344,0.0,3.0,100,0.00,,SKC,0.01,VWS V14.01,2013-05-02 08:56:00,
2013-05-02 05:01:00,56.6,56.6,30.14,North,3,1.0,7.0,100,0.00,,SKC,0.01,VWS V14.01,2013-05-02 09:01:00,
2013-05-02 05:06:00,56.6,56.6,30.14,NNE,23,0.0,3.0,100,0.00,,SKC,0.01,VWS V14.01,2013-05-02 09:06:00,
2013-05-02 05:11:00,56.6,56.6,30.14,NNE,17,0.0,3.0,100,0.00,,SKC,0.01,VWS V14.01,2013-05-02 09:11:00,
2013-05-02 05:16:00,56.6,56.6,30.14,North,11,0.0,3.0,100,0.00,,SKC,0.01,VWS V14.01,2013-05-02 09:16:00,
2013-05-02 05:21:00,56.6,56.6,30.14,North,0,0.0,3.0,100,0.00,,SKC,0.01,VWS V14.01,2013-05-02 09:21:00,
2013-05-02 05:26:00,56.6,56.6,30.14,North,0,0.0,3.0,100,0.00,,SKC,0.01,VWS V14.01,2013-05-02 09:26:00,
2013-05-02 05:31:00,56.6,56.6,30.14,ESE,117,0.0,3.0,100,0.00,,SKC,0.01,VWS V14.01,2013-05-02 09:31:00,
2013-05-02 05:36:00,56.6,56.6,30.14,North,8,0.0,2.0,100,0.00,,SKC,0.01,VWS V14.01,2013-05-02 09:36:00,
2013-05-02 05:41:00,56.6,56.6,30.14,North,8,0.0,2.0,100,0.00,,SKC,0.01,VWS V14.01,2013-05-02 09:41:00,
2013-05-02 05:46:00,56.6,56.6,30.14,NNW,339,0.0,3.0,100,0.00,,SKC,0.01,VWS V14.01,2013-05-02 09:46:00,
2013-05-02 05:51:00,56.6,56.6,30.14,NNE,20,2.0,3.0,100,0.00,,SKC,0.01,VWS V14.01,2013-05-02 09:51:00,
2013-05-02 05:56:00,56.6,56.6,30.14,North,3,2.0,3.0,100,0.00,,SKC,0.01,VWS V14.01,2013-05-02 09:56:00,
2013-05-02 06:01:00,56.6,56.6,30.14,North,3,0.0,3.0,100,0.01,,SKC,0.02,VWS V14.01,2013-05-02 10:01:00,
2013-05-02 06:06:00,56.6,56.6,30.14,ENE,59,0.0,2.0,100,0.01,,SKC,0.02,VWS V14.01,2013-05-02 10:06:00,
2013-05-02 06:11:00,56.6,56.6,30.14,NE,54,0.0,2.0,100,0.01,,SKC,0.02,VWS V14.01,2013-05-02 10:11:00,
2013-05-02 06:16:00,56.5,56.5,30.14,North,11,0.0,2.0,100,0.01,,SKC,0.02,VWS V14.01,2013-05-02 10:16:00,
2013-05-02 06:21:00,56.6,56.6,30.14,North,11,1.0,2.0,100,0.02,,SKC,0.03,VWS V14.01,2013-05-02 10:21:00,
2013-05-02 06:26:00,56.5,56.5,30.14,North,0,0.0,2.0,100,0.02,,SKC,0.03,VWS V14.01,2013-05-02 10:26:00,
2013-05-02 06:31:00,56.5,56.5,30.14,SE,143,0.0,3.0,100,0.02,,SKC,0.03,VWS V14.01,2013-05-02 10:31:00,
2013-05-02 06:36:00,56.5,56.5,30.15,SE,141,0.0,2.0,100,0.02,,SKC,0.03,VWS V14.01,2013-05-02 10:36:00,
2013-05-02 06:41:00,56.5,56.5,30.15,North,1,0.0,5.0,100,0.02,,SKC,0.03,VWS V14.01,2013-05-02 10:41:00,
2013-05-02 06:45:00,56.5,56.5,30.15,North,1,0.0,5.0,100,0.02,,SKC,0.03,VWS V14.01,2013-05-02 10:45:00,
2013-05-02 06:50:00,56.5,56.5,30.15,ENE,69,0.0,5.0,100,0.02,,SKC,0.03,VWS V14.01,2013-05-02 10:50:00,
2013-05-02 06:56:00,56.5,56.5,30.15,ENE,71,0.0,5.0,100,0.02,,SKC,0.03,VWS V14.01,2013-05-02 10:56:00,
2013-05-02 07:01:00,56.5,56.5,30.15,ENE,64,0.0,5.0,100,0.02,,SKC,0.03,VWS V14.01,2013-05-02 11:01:00,
2013-05-02 07:06:00,56.5,56.5,30.16,NNE,23,0.0,3.0,100,0.01,,SKC,0.03,VWS V14.01,2013-05-02 11:06:00,
2013-05-02 07:10:00,56.5,56.5,30.16,NNW,342,0.0,3.0,100,0.01,,SKC,0.03,VWS V14.01,2013-05-02 11:10:00,
2013-05-02 07:15:00,56.5,56.5,30.16,North,359,5.0,5.0,100,0.01,,SKC,0.03,VWS V14.01,2013-05-02 11:15:00,
2013-05-02 07:20:00,56.5,56.5,30.16,NNE,13,0.0,5.0,100,0.01,,SKC,0.03,VWS V14.01,2013-05-02 11:20:00,
2013-05-02 07:25:00,56.5,56.5,30.16,NNE,13,0.0,5.0,100,0.01,,SKC,0.03,VWS V14.01,2013-05-02 11:25:00,
2013-05-02 07:30:00,56.5,56.5,30.16,NNE,13,0.0,5.0,100,0.01,,SKC,0.03,VWS V14.01,2013-05-02 11:30:00,
2013-05-02 07:35:00,56.5,56.5,30.16,SW,222,1.0,2.0,100,0.00,,SKC,0.03,VWS V14.01,2013-05-02 11:35:00,
2013-05-02 07:40:00,56.5,56.5,30.16,North,7,0.0,3.0,100,0.00,,SKC,0.03,VWS V14.01,2013-05-02 11:40:00,
2013-05-02 07:45:00,56.5,56.5,30.16,NE,38,2.0,3.0,100,0.00,,SKC,0.03,VWS V14.01,2013-05-02 11:45:00,
2013-05-02 07:50:00,56.5,56.5,30.17,North,0,2.0,3.0,100,0.00,,SKC,0.03,VWS V14.01,2013-05-02 11:50:00,
2013-05-02 07:55:00,56.5,56.5,30.17,NE,35,0.0,3.0,100,0.00,,SKC,0.03,VWS V14.01,2013-05-02 11:55:00,
2013-05-02 08:00:00,56.5,56.5,30.17,NNE,24,0.0,3.0,100,0.00,,SKC,0.03,VWS V14.01,2013-05-02 12:00:00,
2013-05-02 08:05:00,56.5,56.5,30.17,North,0,0.0,1.0,100,0.00,,SKC,0.03,VWS V14.01,2013-05-02 12:05:00,
2013-05-02 08:10:00,56.5,56.5,30.17,SE,144,0.0,6.0,100,0.00,,SKC,0.03,VWS V14.01,2013-05-02 12:10:00,
2013-05-02 08:15:00,56.5,56.5,30.17,ESE,104,0.0,6.0,100,0.00,,SKC,0.03,VWS V14.01,2013-05-02 12:15:00,
2013-05-02 08:20:00,56.6,56.6,30.18,ESE,110,1.0,6.0,100,0.00,,SKC,0.03,VWS V14.01,2013-05-02 12:20:00,
2013-05-02 08:25:00,56.6,56.6,30.18,SE,127,0.0,6.0,100,0.00,,SKC,0.03,VWS V14.01,2013-05-02 12:25:00,
2013-05-02 08:30:00,56.6,56.6,30.18,SE,124,0.0,6.0,100,0.00,,SKC,0.03,VWS V14.01,2013-05-02 12:30:00,
2013-05-02 08:35:00,56.6,56.6,30.18,North,359,0.0,2.0,100,0.00,,SKC,0.03,VWS V14.01,2013-05-02 12:35:00,
2013-05-02 08:40:00,56.7,56.7,30.18,ENE,65,1.0,2.0,100,0.00,,SKC,0.03,VWS V14.01,2013-05-02 12:40:00,
2013-05-02 08:45:00,56.7,56.7,30.18,East,90,0.0,3.0,100,0.00,,SKC,0.03,VWS V14.01,2013-05-02 12:45:00,
2013-05-02 08:50:00,56.7,56.7,30.18,SE,128,0.0,3.0,100,0.00,,SKC,0.03,VWS V14.01,2013-05-02 12:50:00,
2013-05-02 08:55:00,56.6,56.6,30.18,North,10,0.0,4.0,100,0.00,,SKC,0.03,VWS V14.01,2013-05-02 12:55:00,
2013-05-02 09:00:00,56.6,56.6,30.18,NE,35,2.0,6.0,100,0.00,,SKC,0.03,VWS V14.01,2013-05-02 13:00:00,
2013-05-02 09:05:00,56.6,56.6,30.18,North,353,2.0,2.0,100,0.00,,SKC,0.03,VWS V14.01,2013-05-02 13:05:00,
2013-05-02 09:10:00,56.6,56.6,30.18,North,8,0.0,2.0,100,0.00,,SKC,0.03,VWS V14.01,2013-05-02 13:10:00,
2013-05-02 09:15:00,56.7,56.7,30.18,WNW,282,0.0,2.0,100,0.00,,SKC,0.03,VWS V14.01,2013-05-02 13:15:00,
2013-05-02 09:20:00,56.7,56.7,30.18,WSW,258,0.0,2.0,100,0.00,,SKC,0.03,VWS V14.01,2013-05-02 13:20:00,
2013-05-02 09:25:00,56.9,56.9,30.18,West,264,0.0,2.0,100,0.00,,SKC,0.03,VWS V14.01,2013-05-02 13:25:00,
2013-05-02 09:30:00,56.9,56.9,30.18,North,357,1.0,3.0,100,0.00,,SKC,0.03,VWS V14.01,2013-05-02 13:30:00,
2013-05-02 09:35:00,56.9,56.9,30.18,NNW,329,0.0,2.0,100,0.00,,SKC,0.03,VWS V14.01,2013-05-02 13:35:00,
2013-05-02 09:40:00,56.9,56.9,30.18,NNW,335,0.0,2.0,100,0.00,,SKC,0.03,VWS V14.01,2013-05-02 13:40:00,
2013-05-02 09:45:00,57.0,57.0,30.18,North,356,0.0,3.0,100,0.00,,SKC,0.03,VWS V14.01,2013-05-02 13:45:00,
2013-05-02 09:50:00,57.0,57.0,30.18,North,0,1.0,3.0,100,0.00,,SKC,0.03,VWS V14.01,2013-05-02 13:50:00,
2013-05-02 09:55:00,57.2,57.2,30.18,NNW,344,0.0,3.0,100,0.00,,SKC,0.03,VWS V14.01,2013-05-02 13:55:00,
2013-05-02 10:00:00,57.3,57.3,30.18,NNW,344,0.0,3.0,100,0.01,,SKC,0.04,VWS V14.01,2013-05-02 14:00:00,
2013-05-02 10:05:00,57.5,57.5,30.18,NNW,344,0.0,1.0,100,0.01,,SKC,0.04,VWS V14.01,2013-05-02 14:05:00,
2013-05-02 10:10:00,57.6,57.6,30.18,North,4,0.0,1.0,100,0.01,,SKC,0.04,VWS V14.01,2013-05-02 14:10:00,
2013-05-02 10:15:00,57.6,57.6,30.18,ENE,59,0.0,2.0,100,0.01,,SKC,0.04,VWS V14.01,2013-05-02 14:15:00,
2013-05-02 10:20:00,57.6,57.6,30.19,North,0,1.0,3.0,100,0.01,,SKC,0.04,VWS V14.01,2013-05-02 14:20:00,
2013-05-02 10:25:00,57.6,57.6,30.19,North,3,0.0,3.0,100,0.01,,SKC,0.04,VWS V14.01,2013-05-02 14:25:00,
2013-05-02 10:30:00,57.8,57.8,30.19,North,8,0.0,3.0,100,0.01,,SKC,0.04,VWS V14.01,2013-05-02 14:30:00,
2013-05-02 10:35:00,57.8,57.8,30.19,SSE,157,1.0,3.0,100,0.01,,SKC,0.04,VWS V14.01,2013-05-02 14:35:00,
2013-05-02 10:40:00,57.8,57.8,30.19,NW,309,0.0,3.0,100,0.01,,SKC,0.04,VWS V14.01,2013-05-02 14:40:00,
2013-05-02 10:45:00,57.8,57.8,30.19,North,352,1.0,3.0,100,0.01,,SKC,0.04,VWS V14.01,2013-05-02 14:45:00,
2013-05-02 10:50:00,58.0,58.0,30.19,NE,35,0.0,3.0,100,0.01,,SKC,0.04,VWS V14.01,2013-05-02 14:50:00,
2013-05-02 10:55:00,58.0,58.0,30.19,NNE,20,0.0,5.0,100,0.01,,SKC,0.04,VWS V14.01,2013-05-02 14:55:00,
2013-05-02 11:00:00,58.1,58.1,30.19,North,359,0.0,5.0,100,0.01,,SKC,0.04,VWS V14.01,2013-05-02 15:00:00,
2013-05-02 11:05:00,58.1,58.1,30.19,ENE,78,0.0,2.0,100,0.00,,SKC,0.04,VWS V14.01,2013-05-02 15:05:00,
2013-05-02 11:10:00,58.3,58.3,30.19,North,352,0.0,4.0,100,0.00,,SKC,0.04,VWS V14.01,2013-05-02 15:10:00,
2013-05-02 11:15:00,57.8,57.8,30.19,North,0,0.0,5.0,100,0.00,,SKC,0.04,VWS V14.01,2013-05-02 15:15:00,
2013-05-02 11:20:00,57.5,57.5,30.19,NE,44,1.0,5.0,100,0.00,,SKC,0.04,VWS V14.01,2013-05-02 15:20:00,
2013-05-02 11:25:00,57.5,57.5,30.19,North,11,0.0,5.0,100,0.00,,SKC,0.04,VWS V14.01,2013-05-02 15:25:00,
2013-05-02 11:30:00,57.3,57.3,30.19,NNE,18,0.0,5.0,100,0.00,,SKC,0.04,VWS V14.01,2013-05-02 15:30:00,
2013-05-02 11:35:00,57.3,57.3,30.20,North,6,0.0,3.0,100,0.00,,SKC,0.04,VWS V14.01,2013-05-02 15:35:00,
2013-05-02 11:40:00,57.5,57.5,30.20,SE,140,0.0,3.0,100,0.00,,SKC,0.04,VWS V14.01,2013-05-02 15:40:00,
2013-05-02 11:45:00,57.6,57.6,30.20,NNE,27,2.0,3.0,100,0.00,,SKC,0.04,VWS V14.01,2013-05-02 15:45:00,
2013-05-02 11:50:00,57.8,57.8,30.20,NW,325,1.0,3.0,100,0.00,,SKC,0.04,VWS V14.01,2013-05-02 15:50:00,
2013-05-02 11:55:00,57.8,57.8,30.20,ESE,117,0.0,3.0,100,0.00,,SKC,0.04,VWS V14.01,2013-05-02 15:55:00,
2013-05-02 12:00:00,57.8,57.8,30.20,North,353,0.0,3.0,100,0.00,,SKC,0.04,VWS V14.01,2013-05-02 16:00:00,
2013-05-02 12:05:00,57.8,57.8,30.20,ESE,104,0.0,3.0,100,0.00,,SKC,0.04,VWS V14.01,2013-05-02 16:05:00,
2013-05-02 12:10:00,57.8,57.8,30.20,SW,216,0.0,3.0,100,0.00,,SKC,0.04,VWS V14.01,2013-05-02 16:10:00,
2013-05-02 12:15:00,57.6,57.6,30.20,NNE,20,0.0,3.0,100,0.00,,SKC,0.04,VWS V14.01,2013-05-02 16:15:00,
2013-05-02 12:20:00,57.5,57.5,30.20,ENE,71,2.0,5.0,100,0.00,,SKC,0.04,VWS V14.01,2013-05-02 16:20:00,
2013-05-02 12:25:00,57.5,57.5,30.20,West,274,0.0,5.0,100,0.00,,SKC,0.04,VWS V14.01,2013-05-02 16:25:00,
2013-05-02 12:30:00,57.6,57.6,30.20,East,79,0.0,6.0,100,0.00,,SKC,0.04,VWS V14.01,2013-05-02 16:30:00,
2013-05-02 12:35:00,57.8,57.8,30.20,NNE,20,0.0,0.0,100,0.00,,SKC,0.04,VWS V14.01,2013-05-02 16:35:00,
2013-05-02 12:40:00,58.0,58.0,30.20,ESE,103,0.0,2.0,100,0.00,,SKC,0.04,VWS V14.01,2013-05-02 16:40:00,
2013-05-02 12:45:00,57.8,57.8,30.20,North,353,0.0,6.0,100,0.00,,SKC,0.04,VWS V14.01,2013-05-02 16:45:00,
2013-05-02 12:50:00,57.8,57.8,30.20,NNE,13,2.0,6.0,100,0.00,,SKC,0.04,VWS V14.01,2013-05-02 16:50:00,
2013-05-02 12:55:00,57.8,57.8,30.20,East,88,0.0,6.0,100,0.00,,SKC,0.04,VWS V14.01,2013-05-02 16:55:00,
2013-05-02 13:00:00,57.8,57.8,30.20,NNW,346,1.0,6.0,100,0.00,,SKC,0.04,VWS V14.01,2013-05-02 17:00:00,
2013-05-02 13:05:00,58.0,58.0,30.20,NNE,20,4.0,4.0,100,0.00,,SKC,0.04,VWS V14.01,2013-05-02 17:05:00,
2013-05-02 13:10:00,58.0,58.0,30.20,North,359,0.0,7.0,100,0.00,,SKC,0.04,VWS V14.01,2013-05-02 17:10:00,
2013-05-02 13:15:00,58.1,58.1,30.20,West,278,0.0,7.0,100,0.00,,SKC,0.04,VWS V14.01,2013-05-02 17:15:00,
2013-05-02 13:20:00,58.4,58.4,30.20,North,359,0.0,7.0,100,0.00,,SKC,0.04,VWS V14.01,2013-05-02 17:20:00,
2013-05-02 13:25:00,58.4,58.1,30.20,North,350,0.0,7.0,99,0.00,,SKC,0.04,VWS V14.01,2013-05-02 17:25:00,
2013-05-02 13:30:00,58.6,58.0,30.20,NNW,337,1.0,7.0,98,0.00,,SKC,0.04,VWS V14.01,2013-05-02 17:30:00,
2013-05-02 13:35:00,58.6,57.8,30.19,North,7,3.0,6.0,97,0.00,,SKC,0.04,VWS V14.01,2013-05-02 17:35:00,
2013-05-02 13:40:00,58.6,57.2,30.19,NNE,30,0.0,6.0,95,0.00,,SKC,0.04,VWS V14.01,2013-05-02 17:40:00,
2013-05-02 13:45:00,58.4,57.0,30.19,NW,325,1.0,6.0,95,0.00,,SKC,0.04,VWS V14.01,2013-05-02 17:45:00,
2013-05-02 13:50:00,58.6,57.8,30.19,SSE,161,1.0,6.0,97,0.00,,SKC,0.04,VWS V14.01,2013-05-02 17:50:00,
2013-05-02 13:55:00,58.7,57.6,30.19,North,352,2.0,6.0,96,0.00,,SKC,0.04,VWS V14.01,2013-05-02 17:55:00,
2013-05-02 14:00:00,58.9,57.2,30.19,North,359,0.0,6.0,94,0.00,,SKC,0.04,VWS V14.01,2013-05-02 18:00:00,
2013-05-02 14:05:00,59.2,57.5,30.19,NNE,27,0.0,3.0,94,0.00,,SKC,0.04,VWS V14.01,2013-05-02 18:05:00,
2013-05-02 14:10:00,59.2,57.2,30.19,North,4,0.0,3.0,93,0.00,,SKC,0.04,VWS V14.01,2013-05-02 18:10:00,
2013-05-02 14:15:00,59.3,57.3,30.19,North,349,0.0,8.0,93,0.00,,SKC,0.04,VWS V14.01,2013-05-02 18:15:00,
2013-05-02 14:20:00,59.6,57.9,30.19,North,0,3.0,8.0,94,0.00,,SKC,0.04,VWS V14.01,2013-05-02 18:20:00,
2013-05-02 14:25:00,59.6,57.3,30.19,West,281,1.0,8.0,92,0.00,,SKC,0.04,VWS V14.01,2013-05-02 18:25:00,
2013-05-02 14:30:00,59.8,57.5,30.19,North,0,2.0,8.0,92,0.00,,SKC,0.04,VWS V14.01,2013-05-02 18:30:00,
2013-05-02 14:35:00,59.6,57.0,30.19,North,350,0.0,4.0,91,0.00,,SKC,0.04,VWS V14.01,2013-05-02 18:35:00,
2013-05-02 14:40:00,59.8,57.2,30.19,North,0,0.0,5.0,91,0.00,,SKC,0.04,VWS V14.01,2013-05-02 18:40:00,
2013-05-02 14:45:00,59.9,57.3,30.19,North,0,1.0,5.0,91,0.00,,SKC,0.04,VWS V14.01,2013-05-02 18:45:00,
2013-05-02 14:50:00,59.8,57.2,30.19,NNE,21,1.0,6.0,91,0.00,,SKC,0.04,VWS V14.01,2013-05-02 18:50:00,
2013-05-02 14:55:00,59.6,57.0,30.19,East,95,0.0,6.0,91,0.00,,SKC,0.04,VWS V14.01,2013-05-02 18:55:00,
2013-05-02 15:00:00,59.8,57.2,30.19,North,0,0.0,6.0,91,0.00,,SKC,0.04,VWS V14.01,2013-05-02 19:00:00,
2013-05-02 15:05:00,60.1,57.5,30.18,NNE,25,2.0,7.0,91,0.00,,SKC,0.04,VWS V14.01,2013-05-02 19:05:00,
2013-05-02 15:10:00,60.5,57.9,30.18,North,359,2.0,7.0,91,0.00,,SKC,0.04,VWS V14.01,2013-05-02 19:10:00,
2013-05-02 15:15:00,61.0,58.0,30.18,North,4,2.0,7.0,90,0.00,,SKC,0.04,VWS V14.01,2013-05-02 19:15:00,
2013-05-02 15:20:00,61.0,57.7,30.18,North,0,5.0,7.0,89,0.00,,SKC,0.04,VWS V14.01,2013-05-02 19:20:00,
2013-05-02 15:25:00,61.0,57.4,30.18,North,0,1.0,7.0,88,0.00,,SKC,0.04,VWS V14.01,2013-05-02 19:25:00,
2013-05-02 15:30:00,60.9,57.3,30.18,North,0,1.0,7.0,88,0.00,,SKC,0.04,VWS V14.01,2013-05-02 19:30:00,
2013-05-02 15:35:00,60.9,57.3,30.17,NE,38,0.0,1.0,88,0.00,,SKC,0.04,VWS V14.01,2013-05-02 19:35:00,
2013-05-02 15:40:00,60.7,56.8,30.17,North,353,0.0,7.0,87,0.00,,SKC,0.04,VWS V14.01,2013-05-02 19:40:00,
2013-05-02 15:45:00,60.4,57.2,30.17,North,6,3.0,7.0,89,0.00,,SKC,0.04,VWS V14.01,2013-05-02 19:45:00,
2013-05-02 15:50:00,60.4,57.2,30.17,NNE,27,0.0,7.0,89,0.00,,SKC,0.04,VWS V14.01,2013-05-02 19:50:00,
2013-05-02 15:55:00,60.5,57.2,30.17,North,359,2.0,7.0,89,0.00,,SKC,0.04,VWS V14.01,2013-05-02 19:55:00,
2013-05-02 16:00:00,60.4,57.2,30.17,North,359,0.0,7.0,89,0.00,,SKC,0.04,VWS V14.01,2013-05-02 20:00:00,
2013-05-02 16:05:00,60.4,57.2,30.17,NW,308,1.0,1.0,89,0.00,,SKC,0.04,VWS V14.01,2013-05-02 20:05:00,
2013-05-02 16:10:00,60.5,57.6,30.17,ESE,123,2.0,3.0,90,0.00,,SKC,0.04,VWS V14.01,2013-05-02 20:10:00,
2013-05-02 16:15:00,60.5,57.2,30.17,NNE,18,0.0,5.0,89,0.00,,SKC,0.04,VWS V14.01,2013-05-02 20:15:00,
2013-05-02 16:20:00,60.4,57.2,30.16,NNW,347,0.0,5.0,89,0.00,,SKC,0.04,VWS V14.01,2013-05-02 20:20:00,
2013-05-02 16:25:00,60.2,57.3,30.16,North,350,3.0,5.0,90,0.00,,SKC,0.04,VWS V14.01,2013-05-02 20:25:00,
2013-05-02 16:30:00,60.1,57.5,30.16,North,359,0.0,5.0,91,0.00,,SKC,0.04,VWS V14.01,2013-05-02 20:30:00,
2013-05-02 16:35:00,60.1,57.8,30.16,NNW,344,0.0,3.0,92,0.00,,SKC,0.04,VWS V14.01,2013-05-02 20:35:00,
2013-05-02 16:40:00,60.1,57.8,30.16,NNW,336,1.0,3.0,92,0.00,,SKC,0.04,VWS V14.01,2013-05-02 20:40:00,
2013-05-02 16:45:00,59.9,57.6,30.16,North,359,0.0,5.0,92,0.00,,SKC,0.04,VWS V14.01,2013-05-02 20:45:00,
2013-05-02 16:50:00,59.8,57.8,30.15,North,0,0.0,5.0,93,0.00,,SKC,0.04,VWS V14.01,2013-05-02 20:50:00,
2013-05-02 16:55:00,59.6,57.9,30.15,North,11,2.0,5.0,94,0.00,,SKC,0.04,VWS V14.01,2013-05-02 20:55:00,
2013-05-02 17:00:00,59.6,57.6,30.15,North,353,1.0,5.0,93,0.00,,SKC,0.04,VWS V14.01,2013-05-02 21:00:00,
2013-05-02 17:05:00,59.6,57.9,30.15,NNE,31,0.0,5.0,94,0.00,,SKC,0.04,VWS V14.01,2013-05-02 21:05:00,
2013-05-02 17:10:00,59.6,57.6,30.15,North,0,2.0,5.0,93,0.00,,SKC,0.04,VWS V14.01,2013-05-02 21:10:00,
2013-05-02 17:15:00,59.6,57.9,30.15,North,0,0.0,5.0,94,0.00,,SKC,0.04,VWS V14.01,2013-05-02 21:15:00,
2013-05-02 17:20:00,59.6,57.9,30.15,NNE,28,3.0,5.0,94,0.00,,SKC,0.04,VWS V14.01,2013-05-02 21:20:00,
2013-05-02 17:25:00,59.5,58.1,30.15,SSE,151,0.0,5.0,95,0.00,,SKC,0.04,VWS V14.01,2013-05-02 21:25:00,
2013-05-02 17:30:00,59.6,58.2,30.15,SE,133,0.0,5.0,95,0.00,,SKC,0.04,VWS V14.01,2013-05-02 21:30:00,
2013-05-02 17:35:00,59.6,58.5,30.15,East,95,0.0,2.0,96,0.00,,SKC,0.04,VWS V14.01,2013-05-02 21:35:00,
2013-05-02 17:40:00,59.6,58.2,30.15,NNW,330,0.0,3.0,95,0.00,,SKC,0.04,VWS V14.01,2013-05-02 21:40:00,
2013-05-02 17:45:00,59.6,58.2,30.15,North,11,0.0,5.0,95,0.00,,SKC,0.04,VWS V14.01,2013-05-02 21:45:00,
2013-05-02 17:50:00,59.6,58.2,30.15,NE,34,0.0,5.0,95,0.00,,SKC,0.04,VWS V14.01,2013-05-02 21:50:00,
2013-05-02 17:55:00,59.6,58.2,30.15,NNW,333,2.0,5.0,95,0.00,,SKC,0.04,VWS V14.01,2013-05-02 21:55:00,
2013-05-02 18:00:00,59.5,58.1,30.15,North,0,0.0,5.0,95,0.00,,SKC,0.04,VWS V14.01,2013-05-02 22:00:00,
2013-05-02 18:05:00,59.6,58.5,30.14,NNE,28,1.0,2.0,96,0.00,,SKC,0.04,VWS V14.01,2013-05-02 22:05:00,
2013-05-02 18:10:00,59.8,58.7,30.14,NW,319,0.0,3.0,96,0.00,,SKC,0.04,VWS V14.01,2013-05-02 22:10:00,
2013-05-02 18:15:00,59.8,58.4,30.14,SSE,154,0.0,5.0,95,0.00,,SKC,0.04,VWS V14.01,2013-05-02 22:15:00,
2013-05-02 18:20:00,60.1,58.7,30.14,North,0,0.0,6.0,95,0.00,,SKC,0.04,VWS V14.01,2013-05-02 22:20:00,
2013-05-02 18:25:00,60.1,58.4,30.14,North,359,0.0,6.0,94,0.00,,SKC,0.04,VWS V14.01,2013-05-02 22:25:00,
2013-05-02 18:30:00,60.2,58.2,30.14,North,10,0.0,6.0,93,0.00,,SKC,0.04,VWS V14.01,2013-05-02 22:30:00,
2013-05-02 18:35:00,60.1,57.8,30.14,North,357,0.0,3.0,92,0.00,,SKC,0.04,VWS V14.01,2013-05-02 22:35:00,
2013-05-02 18:40:00,60.1,58.1,30.14,North,359,0.0,3.0,93,0.00,,SKC,0.04,VWS V14.01,2013-05-02 22:40:00,
2013-05-02 18:45:00,60.1,58.1,30.14,NW,312,1.0,4.0,93,0.00,,SKC,0.04,VWS V14.01,2013-05-02 22:45:00,
2013-05-02 18:50:00,59.9,57.6,30.14,SE,127,1.0,4.0,92,0.00,,SKC,0.04,VWS V14.01,2013-05-02 22:50:00,
2013-05-02 18:55:00,59.9,57.6,30.14,ENE,71,0.0,4.0,92,0.00,,SKC,0.04,VWS V14.01,2013-05-02 22:55:00,
2013-05-02 19:00:00,59.9,57.3,30.14,East,82,0.0,4.0,91,0.00,,SKC,0.04,VWS V14.01,2013-05-02 23:00:00,
2013-05-02 19:05:00,59.9,57.6,30.14,North,0,1.0,1.0,92,0.00,,SKC,0.04,VWS V14.01,2013-05-02 23:05:00,
2013-05-02 19:10:00,59.8,57.2,30.14,ESE,114,0.0,4.0,91,0.00,,SKC,0.04,VWS V14.01,2013-05-02 23:10:00,
2013-05-02 19:15:00,59.8,57.2,30.14,NNE,24,0.0,5.0,91,0.00,,SKC,0.04,VWS V14.01,2013-05-02 23:15:00,
2013-05-02 19:20:00,59.8,57.5,30.14,North,7,0.0,5.0,92,0.00,,SKC,0.04,VWS V14.01,2013-05-02 23:20:00,
2013-05-02 19:25:00,59.8,57.5,30.14,North,3,0.0,5.0,92,0.00,,SKC,0.04,VWS V14.01,2013-05-02 23:25:00,
2013-05-02 19:30:00,59.8,57.2,30.14,NNE,25,0.0,5.0,91,0.00,,SKC,0.04,VWS V14.01,2013-05-02 23:30:00,
2013-05-02 19:35:00,59.8,57.2,30.14,ESE,113,0.0,0.0,91,0.00,,SKC,0.04,VWS V14.01,2013-05-02 23:35:00,
2013-05-02 19:40:00,59.8,57.5,30.14,SSE,147,0.0,2.0,92,0.00,,SKC,0.04,VWS V14.01,2013-05-02 23:40:00,
2013-05-02 19:45:00,59.8,57.2,30.14,NNE,31,2.0,2.0,91,0.00,,SKC,0.04,VWS V14.01,2013-05-02 23:45:00,
2013-05-02 19:50:00,59.8,57.2,30.15,North,0,0.0,3.0,91,0.00,,SKC,0.04,VWS V14.01,2013-05-02 23:50:00,
2013-05-02 19:55:00,59.8,57.2,30.15,NW,326,2.0,4.0,91,0.00,,SKC,0.04,VWS V14.01,2013-05-02 23:55:00,
2013-05-02 20:00:00,59.8,57.2,30.15,ENE,64,0.0,4.0,91,0.00,,SKC,0.04,VWS V14.01,2013-05-03 00:00:00,
2013-05-02 20:05:00,59.8,57.2,30.15,ENE,58,0.0,1.0,91,0.00,,SKC,0.04,VWS V14.01,2013-05-03 00:05:00,
2013-05-02 20:10:00,59.6,56.7,30.15,North,0,0.0,5.0,90,0.00,,SKC,0.04,VWS V14.01,2013-05-03 00:10:00,
2013-05-02 20:15:00,59.6,57.0,30.15,North,0,0.0,5.0,91,0.00,,SKC,0.04,VWS V14.01,2013-05-03 00:15:00,
2013-05-02 20:20:00,59.6,56.7,30.14,North,0,2.0,5.0,90,0.00,,SKC,0.04,VWS V14.01,2013-05-03 00:20:00,
2013-05-02 20:25:00,59.5,56.9,30.14,North,6,0.0,5.0,91,0.00,,SKC,0.04,VWS V14.01,2013-05-03 00:25:00,
2013-05-02 20:30:00,59.5,56.9,30.14,NE,52,0.0,5.0,91,0.00,,SKC,0.04,VWS V14.01,2013-05-03 00:30:00,
2013-05-02 20:35:00,59.5,56.9,30.14,East,95,0.0,1.0,91,0.00,,SKC,0.04,VWS V14.01,2013-05-03 00:35:00,
2013-05-02 20:40:00,59.5,56.9,30.14,West,268,2.0,3.0,91,0.00,,SKC,0.04,VWS V14.01,2013-05-03 00:40:00,
2013-05-02 20:45:00,59.3,56.7,30.14,ESE,123,0.0,4.0,91,0.00,,SKC,0.04,VWS V14.01,2013-05-03 00:45:00,
2013-05-02 20:50:00,59.3,56.7,30.14,NNE,17,0.0,4.0,91,0.00,,SKC,0.04,VWS V14.01,2013-05-03 00:50:00,
2013-05-02 20:55:00,59.3,56.7,30.14,NNE,21,1.0,5.0,91,0.00,,SKC,0.04,VWS V14.01,2013-05-03 00:55:00,
2013-05-02 21:00:00,59.3,56.7,30.14,North,10,0.0,5.0,91,0.00,,SKC,0.04,VWS V14.01,2013-05-03 01:00:00,
2013-05-02 21:05:00,59.3,56.7,30.15,WNW,298,2.0,3.0,91,0.00,,SKC,0.04,VWS V14.01,2013-05-03 01:05:00,
2013-05-02 21:10:00,59.2,56.6,30.15,North,357,0.0,3.0,91,0.00,,SKC,0.04,VWS V14.01,2013-05-03 01:10:00,
2013-05-02 21:15:00,59.2,56.3,30.15,NNE,16,0.0,6.0,90,0.00,,SKC,0.04,VWS V14.01,2013-05-03 01:15:00,
2013-05-02 21:20:00,59.2,56.6,30.15,North,359,1.0,6.0,91,0.00,,SKC,0.04,VWS V14.01,2013-05-03 01:20:00,
2013-05-02 21:25:00,59.0,56.4,30.15,North,354,2.0,6.0,91,0.00,,SKC,0.04,VWS V14.01,2013-05-03 01:25:00,
2013-05-02 21:30:00,59.0,56.4,30.15,West,275,2.0,6.0,91,0.00,,SKC,0.04,VWS V14.01,2013-05-03 01:30:00,
2013-05-02 21:35:00,59.0,56.4,30.15,SE,126,0.0,2.0,91,0.00,,SKC,0.04,VWS V14.01,2013-05-03 01:35:00,
2013-05-02 21:40:00,59.0,56.4,30.15,SE,136,0.0,3.0,91,0.00,,SKC,0.04,VWS V14.01,2013-05-03 01:40:00,
2013-05-02 21:45:00,58.9,56.3,30.15,North,4,1.0,3.0,91,0.00,,SKC,0.04,VWS V14.01,2013-05-03 01:45:00,
2013-05-02 21:50:00,58.9,56.3,30.15,ESE,103,0.0,3.0,91,0.00,,SKC,0.04,VWS V14.01,2013-05-03 01:50:00,
2013-05-02 21:55:00,58.9,56.3,30.15,East,100,0.0,3.0,91,0.00,,SKC,0.04,VWS V14.01,2013-05-03 01:55:00,
2013-05-02 22:00:00,58.9,56.3,30.15,NW,325,0.0,3.0,91,0.00,,SKC,0.04,VWS V14.01,2013-05-03 02:00:00,
2013-05-02 22:05:00,58.9,56.3,30.15,ESE,120,0.0,1.0,91,0.00,,SKC,0.04,VWS V14.01,2013-05-03 02:05:00,
2013-05-02 22:10:00,58.9,56.0,30.15,North,0,1.0,3.0,90,0.00,,SKC,0.04,VWS V14.01,2013-05-03 02:10:00,
2013-05-02 22:15:00,58.9,56.0,30.15,ESE,119,0.0,3.0,90,0.00,,SKC,0.04,VWS V14.01,2013-05-03 02:15:00,
2013-05-02 22:20:00,58.9,56.0,30.15,NNW,347,0.0,3.0,90,0.00,,SKC,0.04,VWS V14.01,2013-05-03 02:20:00,
2013-05-02 22:25:00,58.9,56.0,30.15,ESE,103,2.0,4.0,90,0.00,,SKC,0.04,VWS V14.01,2013-05-03 02:25:00,
2013-05-02 22:30:00,59.0,56.1,30.15,North,11,0.0,4.0,90,0.00,,SKC,0.04,VWS V14.01,2013-05-03 02:30:00,
2013-05-02 22:35:00,59.0,56.1,30.16,ENE,61,0.0,1.0,90,0.00,,SKC,0.04,VWS V14.01,2013-05-03 02:35:00,
2013-05-02 22:40:00,59.0,56.1,30.16,South,179,1.0,2.0,90,0.00,,SKC,0.04,VWS V14.01,2013-05-03 02:40:00,
2013-05-02 22:45:00,59.0,56.1,30.16,East,80,1.0,2.0,90,0.00,,SKC,0.04,VWS V14.01,2013-05-03 02:45:00,
2013-05-02 22:50:00,59.0,56.1,30.15,North,0,0.0,2.0,90,0.00,,SKC,0.04,VWS V14.01,2013-05-03 02:50:00,
2013-05-02 22:55:00,58.9,56.0,30.15,North,354,2.0,2.0,90,0.00,,SKC,0.04,VWS V14.01,2013-05-03 02:55:00,
2013-05-02 23:00:00,58.9,56.0,30.15,North,354,0.0,2.0,90,0.00,,SKC,0.04,VWS V14.01,2013-05-03 03:00:00,
2013-05-02 23:05:00,58.9,56.0,30.15,NE,55,0.0,0.0,90,0.00,,SKC,0.04,VWS V14.01,2013-05-03 03:05:00,
2013-05-02 23:10:00,58.9,56.3,30.15,ENE,66,0.0,6.0,91,0.00,,SKC,0.04,VWS V14.01,2013-05-03 03:10:00,
2013-05-02 23:15:00,58.9,56.3,30.15,NE,34,0.0,6.0,91,0.00,,SKC,0.04,VWS V14.01,2013-05-03 03:15:00,
2013-05-02 23:20:00,58.7,56.1,30.15,ESE,117,1.0,6.0,91,0.00,,SKC,0.04,VWS V14.01,2013-05-03 03:20:00,
2013-05-02 23:25:00,58.7,56.1,30.15,NNE,27,1.0,6.0,91,0.00,,SKC,0.04,VWS V14.01,2013-05-03 03:25:00,
2013-05-02 23:30:00,58.6,56.0,30.15,NE,35,2.0,6.0,91,0.00,,SKC,0.04,VWS V14.01,2013-05-03 03:30:00,
2013-05-02 23:35:00,58.6,56.3,30.14,WNW,301,1.0,1.0,92,0.00,,SKC,0.04,VWS V14.01,2013-05-03 03:35:00,
2013-05-02 23:40:00,58.6,56.3,30.14,NNW,330,1.0,2.0,92,0.00,,SKC,0.04,VWS V14.01,2013-05-03 03:40:00,
2013-05-02 23:45:00,58.4,56.4,30.14,NNW,340,0.0,3.0,93,0.00,,SKC,0.04,VWS V14.01,2013-05-03 03:45:00,
2013-05-02 23:50:00,58.3,56.3,30.14,North,0,1.0,7.0,93,0.00,,SKC,0.04,VWS V14.01,2013-05-03 03:50:00,
2013-05-02 23:54:00,58.3,56.6,30.14,ESE,123,0.0,7.0,94,0.00,,SKC,0.04,VWS V14.01,2013-05-03 03:54:00,
2013-05-02 23:59:00,58.1,56.4,30.14,North,10,0.0,7.0,94,0.00,,SKC,0.04,VWS V14.01,2013-05-03 03:59:00,